This demonstration page uses our WeatherBlox Daily Observations layout. Learn more.

Left ArrowRight Arrow

Hourly Observations for May 1, 2020

Temp ( °F °C ) Dew Point ( °F °C ) Humidity (%) Winds ( mph kmh ) Pressure ( in mb ) Visibility ( mi km ) Precip ( " mm )
12:54 am 00:54 Clear 61 16.1 41 5 48 48 S 9 15 29.84 1010 10 16.0934 0 0
1:54 am 01:54 Clear 60 15.6 41 5 50 50 S 12 19 29.83 1010 10 16.0934 0 0
2:54 am 02:54 Clear 62 16.7 41 5 46 46 SSE 13 20 29.8 1009 10 16.0934 0 0
3:54 am 03:54 Clear 61 16.1 42 5.6 50 50 S 10 17 29.8 1009 10 16.0934 0 0
4:54 am 04:54 Clear 60 15.6 42 5.6 52 52 ENE 3 6 29.84 1010 10 16.0934 0 0
5:54 am 05:54 Clear 58 14.4 43 6.1 58 58 SE 8 13 29.81 1010 10 16.0934 0 0
6:54 am 06:54 Sunny 58 14.4 45 7.2 62 62 SSE 12 19 29.79 1009 10 16.0934 0 0
7:54 am 07:54 Sunny 62 16.7 46 7.8 56 56 S 13 20 29.79 1009 10 16.0934 0 0
8:54 am 08:54 Sunny 66 18.9 48 8.9 52 52 S 20 31 29.75 1008 10 16.0934 0 0
9:54 am 09:54 Sunny 72 22.2 47 8.3 41 41 SSW 21 33 29.75 1008 10 16.0934 0 0
10:54 am 10:54 Sunny 73 22.8 48 8.9 41 41 SSW 14 22 29.77 1008 10 16.0934 0 0
11:54 am 11:54 Sunny 76 24.4 49 9.4 39 39 WSW 6 9 29.75 1008 10 16.0934 0 0
12:54 pm 12:54 Sunny 80 26.7 50 10 35 35 SSW 9 15 29.74 1007 10 16.0934 0 0
1:54 pm 13:54 Sunny 83 28.3 50 10 32 32 SW 13 20 29.72 1006 10 16.0934 0 0
2:54 pm 14:54 Sunny 85 29.4 49 9.4 29 29 VRB 5 7 29.71 1006 10 16.0934 0 0
3:54 pm 15:54 Sunny 87 30.6 50 10 28 28 S 7 11 29.7 1006 10 16.0934 0 0
4:54 pm 16:54 Sunny 88 31.1 51 10.6 28 28 VRB 6 9 29.69 1006 10 16.0934 0 0
5:54 pm 17:54 Sunny 90 32.2 48 8.9 24 24 NW 9 15 29.7 1006 10 16.0934 0 0
6:54 pm 18:54 Sunny 87 30.6 53 11.7 31 31 NE 3 6 29.71 1006 10 16.0934 0 0
7:54 pm 19:54 Mostly Sunny 83 28.3 52 11.1 34 34 Calm 29.71 1006 10 16.0934 0 0
8:54 pm 20:54 Partly Cloudy 75 23.9 51 10.6 43 43 NNE 8 13 29.74 1007 10 16.0934 0 0
9:54 pm 21:54 Mostly Clear 78 25.6 51 10.6 39 39 ESE 6 9 29.79 1009 10 16.0934 0 0
10:54 pm 22:54 Clear 70 21.1 44 6.7 39 39 NNE 6 9 29.83 1010 10 16.0934 0 0
11:54 pm 23:54 Mostly Clear 70 21.1 44 6.7 39 39 N 12 19 29.86 1011 10 16.0934 0 0

Powered by AerisWeather